"Sample Date","Sample Time","Sensor Name","Sample Value","Units","Flow Rate","Sample Interval","Sample Volume","Laser Status","Number Channels","Micron Size 0","Counts/Channel 0","Micron Size 1","Counts/Channel 1","Micron Size 2","Counts/Channel 2","Micron Size 3","Counts/Channel 3","Micron Size 4","Counts/Channel 4","Micron Size 5","Counts/Channel 5","Micron Size 6","Counts/Channel 6","Micron Size 7","Counts/Channel 7","Micron Size 8","Counts/Channel 8","Micron Size 9","Counts/Channel 9","Micron Size 10","Counts/Channel 10","Micron Size 11","Counts/Channel 11","Micron Size 12","Counts/Channel 12","Micron Size 13","Counts/Channel 13","Micron Size 14","Counts/Channel 14","Micron Size 15","Counts/Channel 15","Micron Size 16","Counts/Channel 16","Micron Size 17","Counts/Channel 17","Micron Size 18","Counts/Channel 18","Micron Size 19","Counts/Channel 19","Micron Size 20","Counts/Channel 20","Micron Size 21","Counts/Channel 21","Micron Size 22","Counts/Channel 22","Micron Size 23","Counts/Channel 23","Micron Size 24","Counts/Channel 24","Micron Size 25","Counts/Channel 25","Micron Size 26","Counts/Channel 26","Micron Size 27","Counts/Channel 27","Micron Size 28","Counts/Channel 28","Micron Size 29","Counts/Channel 29","Micron Size 30","Counts/Channel 30","Micron Size 31","Counts/Channel 31"
"07/10/06","12:00:01","AMMA06",36658.000,"cc",28320.201,6.00,2832.020,1,6,0.100,19406.000,0.200,14746.000,0.300,2359.000,0.500,109.000,1.000,38.000,5.000,0
"07/10/06","12:00:07","AMMA06",37013.000,"cc",28361.406,6.00,2836.141,1,6,0.100,19150.000,0.200,15207.000,0.300,2503.000,0.500,106.000,1.000,47.000,5.000,0
"07/10/06","12:00:13","AMMA06",36591.000,"cc",28323.402,6.00,2832.340,1,6,0.100,19192.000,0.200,14863.000,0.300,2382.000,0.500,101.000,1.000,53.000,5.000,0
"07/10/06","12:00:19","AMMA06",36799.000,"cc",28318.131,6.00,2831.813,1,6,0.100,19205.000,0.200,14996.000,0.300,2419.000,0.500,132.000,1.000,47.000,5.000,0
"07/10/06","12:00:25","AMMA06",36645.000,"cc",28308.510,6.00,2830.851,1,6,0.100,19249.000,0.200,14788.000,0.300,2447.000,0.500,116.000,1.000,45.000,5.000,0
"07/10/06","12:00:31","AMMA06",36951.000,"cc",28260.088,6.00,2826.009,1,6,0.100,19527.000,0.200,14926.000,0.300,2333.000,0.500,112.000,1.000,53.000,5.000,0
"07/10/06","12:00:37","AMMA06",36939.000,"cc",28306.266,6.00,2830.627,1,6,0.100,19283.000,0.200,15088.000,0.300,2415.000,0.500,100.000,1.000,53.000,5.000,0
"07/10/06","12:00:43","AMMA06",36565.000,"cc",28320.926,6.00,2832.093,1,6,0.100,19519.000,0.200,14592.000,0.300,2285.000,0.500,125.000,1.000,44.000,5.000,0
"07/10/06","12:00:49","AMMA06",36452.000,"cc",28300.965,6.00,2830.097,1,6,0.100,19183.000,0.200,14737.000,0.300,2386.000,0.500,102.000,1.000,44.000,5.000,0
"07/10/06","12:00:55","AMMA06",36478.000,"cc",28336.322,6.00,2833.632,1,6,0.100,19304.000,0.200,14672.000,0.300,2353.000,0.500,99.000,1.000,50.000,5.000,0
"07/10/06","12:01:01","AMMA06",36376.000,"cc",28267.602,6.00,2826.760,1,6,0.100,19110.000,0.200,14746.000,0.300,2360.000,0.500,113.000,1.000,47.000,5.000,0
"07/10/06","12:01:07","AMMA06",37251.000,"cc",28305.537,6.00,2830.554,1,6,0.100,19697.000,0.200,14927.000,0.300,2431.000,0.500,137.000,1.000,59.000,5.000,0
"07/10/06","12:01:13","AMMA06",37023.000,"cc",28339.147,6.00,2833.915,1,6,0.100,19663.000,0.200,14778.000,0.300,2359.000,0.500,159.000,1.000,64.000,5.000,0
"07/10/06","12:01:19","AMMA06",36589.000,"cc",28328.145,6.00,2832.815,1,6,0.100,19556.000,0.200,14546.000,0.300,2297.000,0.500,137.000,1.000,53.000,5.000,0
"07/10/06","12:01:25","AMMA06",36746.000,"cc",28354.607,6.00,2835.461,1,6,0.100,19440.000,0.200,14830.000,0.300,2300.000,0.500,126.000,1.000,50.000,5.000,0
"07/10/06","12:01:31","AMMA06",36427.000,"cc",28287.695,6.00,2828.770,1,6,0.100,19291.000,0.200,14682.000,0.300,2283.000,0.500,125.000,1.000,46.000,5.000,0
"07/10/06","12:01:37","AMMA06",36836.000,"cc",28320.016,6.00,2832.002,1,6,0.100,19741.000,0.200,14624.000,0.300,2302.000,0.500,111.000,1.000,58.000,5.000,0
"07/10/06","12:01:43","AMMA06",36879.000,"cc",28306.656,6.00,2830.666,1,6,0.100,19742.000,0.200,14737.000,0.300,2264.000,0.500,103.000,1.000,33.000,5.000,0
"07/10/06","12:01:49","AMMA06",36798.000,"cc",28296.469,6.00,2829.647,1,6,0.100,19652.000,0.200,14664.000,0.300,2314.000,0.500,115.000,1.000,53.000,5.000,0
"07/10/06","12:01:55","AMMA06",36823.000,"cc",28333.740,6.00,2833.374,1,6,0.100,19783.000,0.200,14651.000,0.300,2237.000,0.500,108.000,1.000,44.000,5.000,0
"07/10/06","12:02:01","AMMA06",36694.000,"cc",28357.279,6.00,2835.728,1,6,0.100,19421.000,0.200,14782.000,0.300,2339.000,0.500,101.000,1.000,51.000,5.000,0
"07/10/06","12:02:07","AMMA06",36336.000,"cc",28292.420,6.00,2829.242,1,6,0.100,19509.000,0.200,14399.000,0.300,2252.000,0.500,133.000,1.000,43.000,5.000,0
"07/10/06","12:02:13","AMMA06",36436.000,"cc",28302.906,6.00,2830.291,1,6,0.100,19664.000,0.200,14375.000,0.300,2236.000,0.500,111.000,1.000,50.000,5.000,0
"07/10/06","12:02:19","AMMA06",36871.000,"cc",28276.934,6.00,2827.694,1,6,0.100,19695.000,0.200,14749.000,0.300,2281.000,0.500,96.000,1.000,50.000,5.000,0
"07/10/06","12:02:25","AMMA06",36820.000,"cc",28336.748,6.00,2833.675,1,6,0.100,19771.000,0.200,14598.000,0.300,2287.000,0.500,104.000,1.000,60.000,5.000,0
"07/10/06","12:02:31","AMMA06",36450.000,"cc",28325.272,6.00,2832.527,1,6,0.100,19557.000,0.200,14551.000,0.300,2176.000,0.500,114.000,1.000,52.000,5.000,0
"07/10/06","12:02:37","AMMA06",36860.000,"cc",28346.783,6.00,2834.679,1,6,0.100,19728.000,0.200,14742.000,0.300,2252.000,0.500,108.000,1.000,30.000,5.000,0
"07/10/06","12:02:43","AMMA06",36254.000,"cc",28334.854,6.00,2833.486,1,6,0.100,19424.000,0.200,14522.000,0.300,2143.000,0.500,107.000,1.000,58.000,5.000,0
"07/10/06","12:02:49","AMMA06",36211.000,"cc",28328.287,6.00,2832.829,1,6,0.100,19632.000,0.200,14137.000,0.300,2288.000,0.500,112.000,1.000,42.000,5.000,0
"07/10/06","12:02:55","AMMA06",36119.000,"cc",28285.711,6.00,2828.571,1,6,0.100,19365.000,0.200,14385.000,0.300,2194.000,0.500,124.000,1.000,51.000,5.000,0
"07/10/06","12:03:01","AMMA06",36508.000,"cc",28248.223,6.00,2824.823,1,6,0.100,19722.000,0.200,14481.000,0.300,2163.000,0.500,101.000,1.000,41.000,5.000,0
"07/10/06","12:03:07","AMMA06",35943.000,"cc",28282.252,6.00,2828.225,1,6,0.100,19327.000,0.200,14321.000,0.300,2125.000,0.500,115.000,1.000,55.000,5.000,0
"07/10/06","12:03:13","AMMA06",36450.000,"cc",28359.203,6.00,2835.920,1,6,0.100,19991.000,0.200,14114.000,0.300,2199.000,0.500,114.000,1.000,32.000,5.000,0
"07/10/06","12:03:19","AMMA06",36072.000,"cc",28307.057,6.00,2830.706,1,6,0.100,19453.000,0.200,14365.000,0.300,2099.000,0.500,122.000,1.000,33.000,5.000,0
"07/10/06","12:03:25","AMMA06",36331.000,"cc",28290.807,6.00,2829.081,1,6,0.100,19714.000,0.200,14268.000,0.300,2209.000,0.500,96.000,1.000,44.000,5.000,0
"07/10/06","12:03:31","AMMA06",36581.000,"cc",28337.725,6.00,2833.773,1,6,0.100,19785.000,0.200,14465.000,0.300,2164.000,0.500,119.000,1.000,48.000,5.000,0
"07/10/06","12:03:37","AMMA06",36308.000,"cc",28372.852,6.00,2837.285,1,6,0.100,19746.000,0.200,14299.000,0.300,2117.000,0.500,108.000,1.000,38.000,5.000,0
"07/10/06","12:03:43","AMMA06",36546.000,"cc",28289.568,6.00,2828.957,1,6,0.100,19844.000,0.200,14340.000,0.300,2222.000,0.500,96.000,1.000,44.000,5.000,0
"07/10/06","12:03:49","AMMA06",36079.000,"cc",28329.527,6.00,2832.953,1,6,0.100,19766.000,0.200,14029.000,0.300,2120.000,0.500,116.000,1.000,48.000,5.000,0
"07/10/06","12:03:55","AMMA06",36263.000,"cc",28248.133,6.00,2824.814,1,6,0.100,19811.000,0.200,14178.000,0.300,2106.000,0.500,124.000,1.000,44.000,5.000,0
"07/10/06","12:04:01","AMMA06",36049.000,"cc",28354.256,6.00,2835.426,1,6,0.100,19554.000,0.200,14186.000,0.300,2148.000,0.500,113.000,1.000,48.000,5.000,0
"07/10/06","12:04:07","AMMA06",36050.000,"cc",28334.315,6.00,2833.432,1,6,0.100,19827.000,0.200,13954.000,0.300,2101.000,0.500,118.000,1.000,50.000,5.000,0
"07/10/06","12:04:13","AMMA06",36087.000,"cc",28334.902,6.00,2833.491,1,6,0.100,19733.000,0.200,14072.000,0.300,2143.000,0.500,97.000,1.000,42.000,5.000,0
"07/10/06","12:04:19","AMMA06",36112.000,"cc",28323.807,6.00,2832.381,1,6,0.100,19630.000,0.200,14263.000,0.300,2056.000,0.500,112.000,1.000,51.000,5.000,0
"07/10/06","12:04:25","AMMA06",35943.000,"cc",28286.059,6.00,2828.606,1,6,0.100,19625.000,0.200,14119.000,0.300,2057.000,0.500,95.000,1.000,47.000,5.000,0
"07/10/06","12:04:31","AMMA06",36214.000,"cc",28298.701,6.00,2829.870,1,6,0.100,19781.000,0.200,14131.000,0.300,2153.000,0.500,111.000,1.000,38.000,5.000,0
"07/10/06","12:04:37","AMMA06",36131.000,"cc",28382.027,6.00,2838.203,1,6,0.100,19526.000,0.200,14253.000,0.300,2219.000,0.500,104.000,1.000,29.000,5.000,0
"07/10/06","12:04:43","AMMA06",36442.000,"cc",28347.641,6.00,2834.764,1,6,0.100,19657.000,0.200,14343.000,0.300,2247.000,0.500,149.000,1.000,46.000,5.000,0
"07/10/06","12:04:49","AMMA06",35876.000,"cc",28314.145,6.00,2831.415,1,6,0.100,19422.000,0.200,14107.000,0.300,2198.000,0.500,104.000,1.000,45.000,5.000,0
"07/10/06","12:04:55","AMMA06",36172.000,"cc",28289.857,6.00,2828.986,1,6,0.100,19416.000,0.200,14374.000,0.300,2228.000,0.500,108.000,1.000,46.000,5.000,0
"07/10/06","12:05:01","AMMA06",36279.000,"cc",28293.033,6.00,2829.304,1,6,0.100,19435.000,0.200,14410.000,0.300,2294.000,0.500,104.000,1.000,36.000,5.000,0
"07/10/06","12:05:07","AMMA06",36102.000,"cc",28297.762,6.00,2829.776,1,6,0.100,19190.000,0.200,14541.000,0.300,2213.000,0.500,113.000,1.000,45.000,5.000,0
"07/10/06","12:05:13","AMMA06",36123.000,"cc",28326.811,6.00,2832.681,1,6,0.100,19635.000,0.200,14140.000,0.300,2205.000,0.500,90.000,1.000,53.000,5.000,0
"07/10/06","12:05:19","AMMA06",36117.000,"cc",28340.797,6.00,2834.080,1,6,0.100,19471.000,0.200,14212.000,0.300,2298.000,0.500,88.000,1.000,48.000,5.000,0
"07/10/06","12:05:25","AMMA06",35750.000,"cc",28283.621,6.00,2828.362,1,6,0.100,19272.000,0.200,14168.000,0.300,2157.000,0.500,106.000,1.000,47.000,5.000,0
"07/10/06","12:05:31","AMMA06",36106.000,"cc",28333.809,6.00,2833.381,1,6,0.100,19240.000,0.200,14477.000,0.300,2241.000,0.500,103.000,1.000,45.000,5.000,0
"07/10/06","12:05:37","AMMA06",36213.000,"cc",28356.801,6.00,2835.680,1,6,0.100,19393.000,0.200,14473.000,0.300,2191.000,0.500,113.000,1.000,43.000,5.000,0
"07/10/06","12:05:43","AMMA06",36286.000,"cc",28318.981,6.00,2831.898,1,6,0.100,19326.000,0.200,14550.000,0.300,2265.000,0.500,103.000,1.000,42.000,5.000,0
"07/10/06","12:05:49","AMMA06",36003.000,"cc",28376.856,6.00,2837.686,1,6,0.100,19322.000,0.200,14248.000,0.300,2282.000,0.500,106.000,1.000,45.000,5.000,0
"07/10/06","12:05:55","AMMA06",36460.000,"cc",28271.533,6.00,2827.154,1,6,0.100,19499.000,0.200,14553.000,0.300,2246.000,0.500,111.000,1.000,50.000,5.000,1.000
"07/10/06","12:06:01","AMMA06",36085.000,"cc",28278.545,6.00,2827.855,1,6,0.100,19359.000,0.200,14294.000,0.300,2280.000,0.500,108.000,1.000,44.000,5.000,0
"07/10/06","12:06:07","AMMA06",35862.000,"cc",28355.641,6.00,2835.564,1,6,0.100,19019.000,0.200,14377.000,0.300,2311.000,0.500,104.000,1.000,51.000,5.000,0
"07/10/06","12:06:13","AMMA06",35807.000,"cc",28324.092,6.00,2832.409,1,6,0.100,18937.000,0.200,14405.000,0.300,2321.000,0.500,94.000,1.000,50.000,5.000,0
"07/10/06","12:06:19","AMMA06",35797.000,"cc",28272.563,6.00,2827.256,1,6,0.100,18993.000,0.200,14382.000,0.300,2282.000,0.500,96.000,1.000,44.000,5.000,0
"07/10/06","12:06:25","AMMA06",36201.000,"cc",28357.373,6.00,2835.738,1,6,0.100,19117.000,0.200,14604.000,0.300,2329.000,0.500,112.000,1.000,39.000,5.000,0
"07/10/06","12:06:31","AMMA06",36251.000,"cc",28283.338,6.00,2828.334,1,6,0.100,19182.000,0.200,14563.000,0.300,2342.000,0.500,117.000,1.000,47.000,5.000,0
"07/10/06","12:06:37","AMMA06",35875.000,"cc",28312.145,6.00,2831.215,1,6,0.100,18990.000,0.200,14431.000,0.300,2289.000,0.500,112.000,1.000,53.000,5.000,0
"07/10/06","12:06:43","AMMA06",36429.000,"cc",28332.148,6.00,2833.215,1,6,0.100,19291.000,0.200,14664.000,0.300,2318.000,0.500,101.000,1.000,55.000,5.000,0
"07/10/06","12:06:49","AMMA06",36163.000,"cc",28365.922,6.00,2836.592,1,6,0.100,19272.000,0.200,14443.000,0.300,2297.000,0.500,106.000,1.000,45.000,5.000,0
"07/10/06","12:06:55","AMMA06",36005.000,"cc",28304.125,6.00,2830.413,1,6,0.100,19120.000,0.200,14387.000,0.300,2333.000,0.500,121.000,1.000,44.000,5.000,0
"07/10/06","12:07:01","AMMA06",36017.000,"cc",28312.555,6.00,2831.256,1,6,0.100,19091.000,0.200,14462.000,0.300,2299.000,0.500,115.000,1.000,50.000,5.000,0
"07/10/06","12:07:07","AMMA06",36238.000,"cc",28273.383,6.00,2827.338,1,6,0.100,19160.000,0.200,14620.000,0.300,2324.000,0.500,92.000,1.000,42.000,5.000,0
"07/10/06","12:07:13","AMMA06",36140.000,"cc",28318.141,6.00,2831.814,1,6,0.100,19280.000,0.200,14443.000,0.300,2260.000,0.500,113.000,1.000,44.000,5.000,0
"07/10/06","12:07:19","AMMA06",36156.000,"cc",28312.963,6.00,2831.296,1,6,0.100,19207.000,0.200,14432.000,0.300,2355.000,0.500,115.000,1.000,47.000,5.000,0
"07/10/06","12:07:25","AMMA06",36618.000,"cc",28353.652,6.00,2835.366,1,6,0.100,19641.000,0.200,14469.000,0.300,2339.000,0.500,118.000,1.000,51.000,5.000,0
"07/10/06","12:07:31","AMMA06",36284.000,"cc",28280.301,6.00,2828.030,1,6,0.100,19411.000,0.200,14341.000,0.300,2352.000,0.500,135.000,1.000,45.000,5.000,0
"07/10/06","12:07:37","AMMA06",36041.000,"cc",28319.457,6.00,2831.946,1,6,0.100,19192.000,0.200,14476.000,0.300,2211.000,0.500,117.000,1.000,45.000,5.000,0
"07/10/06","12:07:43","AMMA06",36264.000,"cc",28333.397,6.00,2833.340,1,6,0.100,19426.000,0.200,14411.000,0.300,2282.000,0.500,112.000,1.000,33.000,5.000,0
"07/10/06","12:07:49","AMMA06",36245.000,"cc",28284.633,6.00,2828.463,1,6,0.100,19517.000,0.200,14405.000,0.300,2174.000,0.500,111.000,1.000,38.000,5.000,0
"07/10/06","12:07:55","AMMA06",36174.000,"cc",28347.500,6.00,2834.750,1,6,0.100,19420.000,0.200,14461.000,0.300,2146.000,0.500,102.000,1.000,45.000,5.000,0
"07/10/06","12:08:01","AMMA06",36423.000,"cc",28364.346,6.00,2836.435,1,6,0.100,19709.000,0.200,14309.000,0.300,2252.000,0.500,115.000,1.000,38.000,5.000,0
"07/10/06","12:08:07","AMMA06",36385.000,"cc",28280.459,6.00,2828.046,1,6,0.100,19522.000,0.200,14465.000,0.300,2243.000,0.500,111.000,1.000,44.000,5.000,0
"07/10/06","12:08:13","AMMA06",36260.000,"cc",28275.371,6.00,2827.537,1,6,0.100,19541.000,0.200,14348.000,0.300,2214.000,0.500,115.000,1.000,42.000,5.000,0
"07/10/06","12:08:19","AMMA06",36433.000,"cc",28319.404,6.00,2831.941,1,6,0.100,19751.000,0.200,14337.000,0.300,2196.000,0.500,108.000,1.000,41.000,5.000,0
"07/10/06","12:08:25","AMMA06",36041.000,"cc",28310.371,6.00,2831.037,1,6,0.100,19430.000,0.200,14283.000,0.300,2173.000,0.500,100.000,1.000,55.000,5.000,0
"07/10/06","12:08:31","AMMA06",36132.000,"cc",28297.109,6.00,2829.711,1,6,0.100,19500.000,0.200,14315.000,0.300,2184.000,0.500,87.000,1.000,46.000,5.000,0
"07/10/06","12:08:37","AMMA06",36632.000,"cc",28316.039,6.00,2831.604,1,6,0.100,19889.000,0.200,14272.000,0.300,2294.000,0.500,126.000,1.000,51.000,5.000,0
"07/10/06","12:08:43","AMMA06",36212.000,"cc",28328.893,6.00,2832.889,1,6,0.100,19534.000,0.200,14440.000,0.300,2094.000,0.500,105.000,1.000,39.000,5.000,0
"07/10/06","12:08:49","AMMA06",36617.000,"cc",28326.791,6.00,2832.679,1,6,0.100,19684.000,0.200,14456.000,0.300,2272.000,0.500,150.000,1.000,55.000,5.000,0
"07/10/06","12:08:55","AMMA06",36228.000,"cc",28295.440,6.00,2829.544,1,6,0.100,19642.000,0.200,14301.000,0.300,2150.000,0.500,93.000,1.000,42.000,5.000,0
"07/10/06","12:09:01","AMMA06",36016.000,"cc",28303.197,6.00,2830.320,1,6,0.100,19563.000,0.200,14165.000,0.300,2161.000,0.500,86.000,1.000,41.000,5.000,0
"07/10/06","12:09:07","AMMA06",36348.000,"cc",28278.250,6.00,2827.825,1,6,0.100,19474.000,0.200,14512.000,0.300,2204.000,0.500,125.000,1.000,33.000,5.000,0
"07/10/06","12:09:13","AMMA06",36096.000,"cc",28325.272,6.00,2832.527,1,6,0.100,19580.000,0.200,14229.000,0.300,2128.000,0.500,115.000,1.000,44.000,5.000,0
"07/10/06","12:09:19","AMMA06",36251.000,"cc",28294.393,6.00,2829.440,1,6,0.100,19841.000,0.200,14102.000,0.300,2155.000,0.500,119.000,1.000,34.000,5.000,0
"07/10/06","12:09:25","AMMA06",35810.000,"cc",28339.867,6.00,2833.987,1,6,0.100,19334.000,0.200,14227.000,0.300,2088.000,0.500,116.000,1.000,45.000,5.000,0
"07/10/06","12:09:31","AMMA06",36162.000,"cc",28332.539,6.00,2833.254,1,6,0.100,19569.000,0.200,14197.000,0.300,2197.000,0.500,140.000,1.000,59.000,5.000,0
"07/10/06","12:09:37","AMMA06",36196.000,"cc",28291.422,6.00,2829.142,1,6,0.100,19737.000,0.200,14253.000,0.300,2052.000,0.500,113.000,1.000,41.000,5.000,0
"07/10/06","12:09:43","AMMA06",35799.000,"cc",28339.186,6.00,2833.919,1,6,0.100,19392.000,0.200,14071.000,0.300,2162.000,0.500,124.000,1.000,50.000,5.000,0
"07/10/06","12:09:49","AMMA06",36269.000,"cc",28362.186,6.00,2836.219,1,6,0.100,19668.000,0.200,14244.000,0.300,2198.000,0.500,114.000,1.000,45.000,5.000,0
"07/10/06","12:09:55","AMMA06",35684.000,"cc",28332.940,6.00,2833.294,1,6,0.100,19391.000,0.200,14031.000,0.300,2128.000,0.500,91.000,1.000,43.000,5.000,0
"07/10/06","12:10:01","AMMA06",36329.000,"cc",28328.994,6.00,2832.900,1,6,0.100,19653.000,0.200,14345.000,0.300,2177.000,0.500,108.000,1.000,46.000,5.000,0
"07/10/06","12:10:07","AMMA06",36147.000,"cc",28267.559,6.00,2826.756,1,6,0.100,19736.000,0.200,14228.000,0.300,2028.000,0.500,111.000,1.000,44.000,5.000,0
"07/10/06","12:10:13","AMMA06",36131.000,"cc",28252.826,6.00,2825.283,1,6,0.100,19670.000,0.200,14153.000,0.300,2154.000,0.500,107.000,1.000,47.000,5.000,0
"07/10/06","12:10:19","AMMA06",36221.000,"cc",28307.213,6.00,2830.721,1,6,0.100,19670.000,0.200,14304.000,0.300,2106.000,0.500,95.000,1.000,46.000,5.000,0
"07/10/06","12:10:25","AMMA06",35968.000,"cc",28367.887,6.00,2836.789,1,6,0.100,19521.000,0.200,14249.000,0.300,2066.000,0.500,91.000,1.000,41.000,5.000,0
"07/10/06","12:10:31","AMMA06",35979.000,"cc",28363.750,6.00,2836.375,1,6,0.100,19652.000,0.200,14059.000,0.300,2112.000,0.500,113.000,1.000,43.000,5.000,0
"07/10/06","12:10:37","AMMA06",35934.000,"cc",28311.951,6.00,2831.195,1,6,0.100,19522.000,0.200,14152.000,0.300,2089.000,0.500,125.000,1.000,46.000,5.000,0
"07/10/06","12:10:43","AMMA06",36214.000,"cc",28299.072,6.00,2829.908,1,6,0.100,19556.000,0.200,14289.000,0.300,2180.000,0.500,139.000,1.000,50.000,5.000,0
"07/10/06","12:10:49","AMMA06",35930.000,"cc",28284.502,6.00,2828.450,1,6,0.100,19531.000,0.200,14077.000,0.300,2156.000,0.500,125.000,1.000,41.000,5.000,0
"07/10/06","12:10:55","AMMA06",36123.000,"cc",28327.545,6.00,2832.755,1,6,0.100,19801.000,0.200,14035.000,0.300,2139.000,0.500,104.000,1.000,44.000,5.000,0
"07/10/06","12:11:01","AMMA06",36223.000,"cc",28369.178,6.00,2836.918,1,6,0.100,19673.000,0.200,14278.000,0.300,2118.000,0.500,102.000,1.000,52.000,5.000,0
"07/10/06","12:11:07","AMMA06",36103.000,"cc",28319.272,6.00,2831.927,1,6,0.100,19408.000,0.200,14405.000,0.300,2132.000,0.500,124.000,1.000,34.000,5.000,0
"07/10/06","12:11:13","AMMA06",36383.000,"cc",28268.641,6.00,2826.864,1,6,0.100,19717.000,0.200,14318.000,0.300,2190.000,0.500,117.000,1.000,41.000,5.000,0
"07/10/06","12:11:19","AMMA06",36109.000,"cc",28315.260,6.00,2831.526,1,6,0.100,19583.000,0.200,14306.000,0.300,2071.000,0.500,110.000,1.000,39.000,5.000,0
"07/10/06","12:11:25","AMMA06",36137.000,"cc",28256.023,6.00,2825.603,1,6,0.100,19599.000,0.200,14250.000,0.300,2139.000,0.500,111.000,1.000,38.000,5.000,0
"07/10/06","12:11:31","AMMA06",35698.000,"cc",28336.049,6.00,2833.605,1,6,0.100,19276.000,0.200,14144.000,0.300,2135.000,0.500,102.000,1.000,41.000,5.000,0
"07/10/06","12:11:37","AMMA06",36287.000,"cc",28328.678,6.00,2832.868,1,6,0.100,19460.000,0.200,14400.000,0.300,2276.000,0.500,119.000,1.000,32.000,5.000,0
"07/10/06","12:11:43","AMMA06",35899.000,"cc",28289.566,6.00,2828.957,1,6,0.100,19372.000,0.200,14226.000,0.300,2159.000,0.500,106.000,1.000,36.000,5.000,0
"07/10/06","12:11:49","AMMA06",35982.000,"cc",28372.447,6.00,2837.245,1,6,0.100,19446.000,0.200,14182.000,0.300,2209.000,0.500,105.000,1.000,40.000,5.000,0
"07/10/06","12:11:55","AMMA06",35709.000,"cc",28292.859,6.00,2829.286,1,6,0.100,19315.000,0.200,14032.000,0.300,2218.000,0.500,98.000,1.000,46.000,5.000,0
"07/10/06","12:12:01","AMMA06",35842.000,"cc",28305.322,6.00,2830.533,1,6,0.100,19281.000,0.200,14168.000,0.300,2219.000,0.500,122.000,1.000,52.000,5.000,0
"07/10/06","12:12:07","AMMA06",35602.000,"cc",28373.066,6.00,2837.307,1,6,0.100,19247.000,0.200,14039.000,0.300,2188.000,0.500,95.000,1.000,33.000,5.000,0
"07/10/06","12:12:13","AMMA06",35718.000,"cc",28286.963,6.00,2828.697,1,6,0.100,19216.000,0.200,14092.000,0.300,2241.000,0.500,118.000,1.000,51.000,5.000,0
"07/10/06","12:12:19","AMMA06",35361.000,"cc",28347.029,6.00,2834.703,1,6,0.100,19010.000,0.200,14021.000,0.300,2179.000,0.500,100.000,1.000,51.000,5.000,0
"07/10/06","12:12:25","AMMA06",36024.000,"cc",28326.422,6.00,2832.642,1,6,0.100,19416.000,0.200,14184.000,0.300,2273.000,0.500,98.000,1.000,53.000,5.000,0
"07/10/06","12:12:31","AMMA06",35690.000,"cc",28310.498,6.00,2831.050,1,6,0.100,19269.000,0.200,13961.000,0.300,2314.000,0.500,102.000,1.000,44.000,5.000,0
"07/10/06","12:12:37","AMMA06",35408.000,"cc",28360.135,6.00,2836.014,1,6,0.100,19042.000,0.200,14015.000,0.300,2222.000,0.500,88.000,1.000,41.000,5.000,0
"07/10/06","12:12:43","AMMA06",35468.000,"cc",28326.395,6.00,2832.640,1,6,0.100,19233.000,0.200,13947.000,0.300,2149.000,0.500,98.000,1.000,41.000,5.000,0
"07/10/06","12:12:49","AMMA06",35321.000,"cc",28273.777,6.00,2827.378,1,6,0.100,19105.000,0.200,13908.000,0.300,2163.000,0.500,107.000,1.000,38.000,5.000,0
"07/10/06","12:12:55","AMMA06",35758.000,"cc",28285.316,6.00,2828.532,1,6,0.100,19263.000,0.200,14123.000,0.300,2240.000,0.500,95.000,1.000,37.000,5.000,0
"07/10/06","12:13:01","AMMA06",35658.000,"cc",28303.096,6.00,2830.310,1,6,0.100,19459.000,0.200,13938.000,0.300,2100.000,0.500,110.000,1.000,51.000,5.000,0
"07/10/06","12:13:07","AMMA06",35766.000,"cc",28354.752,6.00,2835.475,1,6,0.100,19558.000,0.200,13877.000,0.300,2183.000,0.500,104.000,1.000,44.000,5.000,0
"07/10/06","12:13:13","AMMA06",35562.000,"cc",28308.268,6.00,2830.827,1,6,0.100,19556.000,0.200,13761.000,0.300,2098.000,0.500,108.000,1.000,39.000,5.000,0
"07/10/06","12:13:19","AMMA06",35245.000,"cc",28277.070,6.00,2827.707,1,6,0.100,19208.000,0.200,13860.000,0.300,2045.000,0.500,89.000,1.000,43.000,5.000,0
"07/10/06","12:13:25","AMMA06",35443.000,"cc",28335.984,6.00,2833.599,1,6,0.100,19453.000,0.200,13778.000,0.300,2063.000,0.500,106.000,1.000,43.000,5.000,0
"07/10/06","12:13:31","AMMA06",35435.000,"cc",28314.945,6.00,2831.495,1,6,0.100,19500.000,0.200,13654.000,0.300,2133.000,0.500,104.000,1.000,44.000,5.000,0
"07/10/06","12:13:37","AMMA06",35187.000,"cc",28326.998,6.00,2832.700,1,6,0.100,19573.000,0.200,13372.000,0.300,2099.000,0.500,102.000,1.000,41.000,5.000,0
"07/10/06","12:13:43","AMMA06",34886.000,"cc",28345.273,6.00,2834.528,1,6,0.100,18965.000,0.200,13632.000,0.300,2137.000,0.500,121.000,1.000,31.000,5.000,0
"07/10/06","12:13:49","AMMA06",35131.000,"cc",28292.713,6.00,2829.272,1,6,0.100,19347.000,0.200,13555.000,0.300,2074.000,0.500,112.000,1.000,43.000,5.000,0
"07/10/06","12:13:55","AMMA06",35337.000,"cc",28260.701,6.00,2826.070,1,6,0.100,19463.000,0.200,13692.000,0.300,2065.000,0.500,85.000,1.000,32.000,5.000,0
"07/10/06","12:14:01","AMMA06",35631.000,"cc",28306.893,6.00,2830.690,1,6,0.100,19629.000,0.200,13725.000,0.300,2127.000,0.500,114.000,1.000,36.000,5.000,0
"07/10/06","12:14:07","AMMA06",35496.000,"cc",28363.035,6.00,2836.304,1,6,0.100,19614.000,0.200,13651.000,0.300,2066.000,0.500,115.000,1.000,50.000,5.000,0
"07/10/06","12:14:13","AMMA06",35308.000,"cc",28321.162,6.00,2832.117,1,6,0.100,19597.000,0.200,13591.000,0.300,2000.000,0.500,84.000,1.000,36.000,5.000,0
"07/10/06","12:14:19","AMMA06",35297.000,"cc",28323.856,6.00,2832.386,1,6,0.100,19758.000,0.200,13479.000,0.300,1933.000,0.500,83.000,1.000,44.000,5.000,0